Location: La Oliva
(42.2466°N, 2.9955°E)
Time: 06:50:00
(UTC+00:00)

NOSS 3-1 (A) - Pass Details

Date: 22 April 2021
Orbit: 733 x 1479 km, 63.4° (Epoch: 01 May)

Event Time Altitude Azimuth Distance (km) Brightness Sun altitude
Rises 22:34:43 0° 323° (NW) 3,994 7.7 -32.8°
Reaches altitude 10° 22:37:15 10° 322° (NW) 3,129 6.9 -33.0°
Maximum altitude 22:44:58 80° 238° (WSW) 1,359 4.0 -33.4°
Enters shadow 22:45:03 80° 229° (SW) 1,361 4.0 -33.4°
